EW5089 Weather Reports


Display with metric or nautical units.
time (UTC)temp
F
wind
direction
speed
MPH
gust
MPH
rain 1hr
in
rain 24hr
in
rain mn
in
humidity
%
barometer
mb
20210804151551 64 259 2.0 7.0 0.00 0.00 0.00 67 1011.2
20210804150101 63 231 1.0 4.0 0.00 0.00 0.00 71 1011.3
20210804144515 61 231 2.0 5.0 0.00 0.00 0.00 73 1011.2
20210804143010 60 201 1.0 3.0 0.00 0.00 0.00 74 1011.4
20210804141521 59 201 1.0 3.0 0.00 0.00 0.00 76 1011.4
20210804140011 58 201 1.0 3.0 0.00 0.00 0.00 77 1011.3
20210804134510 57 201 0.0 2.0 0.00 0.00 0.00 78 1011.3
20210804133012 57 201 0.0 2.0 0.00 0.00 0.00 78 1011.3
20210804131504 57 201 1.0 2.0 0.00 0.00 0.00 77 1011.2
20210804124655 59 201 0.0 2.0 0.00 0.00 0.00 75 1011.1
20210804123153 60 201 1.0 2.0 0.00 0.00 0.00 73 1011.1
20210804121651 61 201 0.0 2.0 0.00 0.00 0.00 72 1011.1
20210804120121 61 201 1.0 4.0 0.00 0.00 0.00 71 1011.0
20210804114635 62 199 0.0 3.0 0.00 0.00 0.00 71 1011.0
20210804113050 62 199 1.0 3.0 0.00 0.00 0.00 70 1011.2
20210804111718 62 199 1.0 3.0 0.00 0.00 0.00 70 1011.3
20210804110117 62 195 1.0 3.0 0.00 0.00 0.00 70 1011.4
20210804104622 62 195 1.0 2.0 0.00 0.00 0.00 68 1011.4
20210804103100 63 195 0.0 3.0 0.00 0.00 0.00 66 1011.5
20210804101555 63 195 0.0 2.0 0.00 0.00 0.00 65 1011.4
20210804100113 63 195 1.0 3.0 0.00 0.00 0.00 65 1011.5
20210804094542 63 195 1.0 3.0 0.00 0.00 0.00 64 1011.5
20210804093056 64 194 0.0 3.0 0.00 0.00 0.00 62 1011.6
20210804091552 64 194 0.0 2.0 0.00 0.00 0.00 62 1011.7
20210804090107 64 194 1.0 3.0 0.00 0.00 0.00 62 1011.8
20210804084605 64 194 1.0 2.0 0.00 0.00 0.00 63 1011.8
20210804083048 64 192 2.0 4.0 0.00 0.00 0.00 63 1012.0
20210804081539 65 130 1.0 2.0 0.00 0.00 0.00 63 1012.2
20210804080031 65 130 0.0 2.0 0.00 0.00 0.00 63 1012.3
20210804074524 65 129 0.0 2.0 0.00 0.00 0.00 64 1012.3
20210804073021 65 129 0.0 3.0 0.00 0.00 0.00 63 1012.3
20210804071528 65 126 0.0 3.0 0.00 0.00 0.00 63 1012.4
20210804070025 66 126 1.0 2.0 0.00 0.00 0.00 62 1012.4
20210804064516 66 126 1.0 2.0 0.00 0.00 0.00 60 1012.5
20210804063038 66 126 1.0 3.0 0.00 0.00 0.00 60 1012.5
20210804061516 67 126 1.0 3.0 0.00 0.00 0.00 59 1012.4
20210804060034 67 274 2.0 3.0 0.00 0.00 0.00 57 1012.3
20210804054532 68 274 0.0 3.0 0.00 0.00 0.00 57 1012.3
20210804053026 69 274 0.0 2.0 0.00 0.00 0.00 54 1012.2
20210804051535 69 274 0.0 0.0 0.00 0.00 0.00 52 1012.1
20210804050050 70 274 0.0 1.0 0.00 0.00 0.00 52 1012.1
20210804044517 71 274 0.0 2.0 0.00 0.00 0.00 47 1012.0
20210804043018 73 274 1.0 3.0 0.00 0.00 0.00 45 1011.9
20210804041530 74 274 0.0 2.0 0.00 0.00 0.00 42 1011.6
20210804040012 75 274 1.0 3.0 0.00 0.00 0.00 41 1011.3
20210804034519 77 274 0.0 1.0 0.00 0.00 0.00 41 1011.2
20210804033027 79 274 1.0 2.0 0.00 0.00 0.00 38 1011.0
20210804031509 80 274 0.0 4.0 0.00 0.00 0.00 35 1011.0
20210804030036 81 296 2.0 6.0 0.00 0.00 0.00 33 1010.9
20210804024511 82 296 0.0 4.0 0.00 0.00 0.00 36 1010.8
20210804023019 82 304 3.0 11.0 0.00 0.00 0.00 36 1010.6
20210804021512 83 295 6.0 11.0 0.00 0.00 0.00 35 1010.4
20210804020006 84 290 4.0 14.0 0.00 0.00 0.00 34 1010.4
20210804014519 86 292 8.0 13.0 0.00 0.00 0.00 33 1010.3
20210804013032 87 319 6.0 15.0 0.00 0.00 0.00 31 1010.3
20210804011503 88 305 6.0 14.0 0.00 0.00 0.00 29 1010.3
20210804010028 90 285 5.0 16.0 0.00 0.00 0.00 27 1010.5
20210804004503 90 300 8.0 14.0 0.00 0.00 0.00 27 1010.5
20210804003230 90 310 5.0 15.0 0.00 0.00 0.00 26 1010.5
20210804001807 91 309 7.0 15.0 0.00 0.00 0.00 23 1010.6
20210804000321 91 299 6.0 16.0 0.00 0.00 0.00 24 1010.7
20210803234659 93 294 6.0 11.0 0.00 0.00 0.00 17 1010.7
20210803233240 93 271 5.0 14.0 0.00 0.00 0.00 14 1010.6
20210803231722 93 231 4.0 9.0 0.00 0.00 0.00 13 1010.7
20210803230224 93 278 5.0 15.0 0.00 0.00 0.00 10 1010.9
20210803224652 93 242 7.0 16.0 0.00 0.01 0.00 12 1010.9
20210803223125 92 290 7.0 15.0 0.00 0.01 0.00 15 1011.1
20210803221746 92 284 9.0 17.0 0.00 0.01 0.00 12 1011.3
20210803220155 92 298 7.0 18.0 0.00 0.01 0.00 16 1011.4
20210803214551 92 241 6.0 16.0 0.00 0.01 0.00 13 1011.6
20210803213107 91 298 9.0 15.0 0.00 0.01 0.00 17 1011.8
20210803211728 91 292 5.0 16.0 0.00 0.01 0.00 15 1011.9
20210803210109 90 241 7.0 14.0 0.00 0.01 0.00 17 1012.1
20210803204604 90 274 8.0 15.0 0.00 0.02 0.00 16 1012.4
20210803203145 89 253 5.0 12.0 0.00 0.02 0.00 17 1012.6
20210803200046 89 273 5.0 14.0 0.00 0.02 0.00 16 1012.9
20210803194552 88 140 4.0 11.0 0.00 0.13 0.00 17 1013.0
20210803193036 86 251 3.0 11.0 0.00 0.13 0.00 15 1013.2
20210803191544 86 256 7.0 12.0 0.00 0.13 0.00 19 1013.4
20210803190044 86 161 1.0 6.0 0.00 0.13 0.00 21 1013.7
20210803184549 85 254 2.0 9.0 0.00 0.13 0.00 27 1013.8
20210803183021 83 283 4.0 12.0 0.00 0.13 0.00 27 1013.7
20210803181508 82 304 3.0 8.0 0.00 0.13 0.00 34 1014.0
20210803180006 81 296 4.0 9.0 0.00 0.13 0.00 36 1014.2
20210803174718 79 289 1.0 5.0 0.00 0.13 0.00 41 1014.3
20210803173312 78 311 2.0 6.0 0.00 0.13 0.00 39 1014.4
20210803170153 75 279 2.0 5.0 0.00 0.13 0.00 42 1014.7
20210803164643 74 309 3.0 5.0 0.00 0.13 0.00 46 1014.7
20210803163114 72 257 2.0 5.0 0.00 0.13 0.00 47 1014.9
20210803161559 70 281 2.0 4.0 0.00 0.13 0.00 49 1014.9
20210803160143 69 294 2.0 4.0 0.00 0.13 0.00 53 1015.1
20210803160055 69 294 2.0 4.0 0.00 0.13 0.00 52 1015.1
20210803154551 67 254 1.0 5.0 0.00 0.13 0.00 55 1015.1
20210803153100 66 252 1.0 4.0 0.00 0.13 0.00 57 1015.2